^^
Saratoga-Weather Station Historical Data
Daily Summary for March 13, 2020 Units:  Metric    English   Both
Daily Weekly Monthly Yearly Custom
  High: Low: Average:
Temperature: 10.2 °C 2.9 °C 5.8 °C
Dew Point: 4 °C 1.2 °C 2.1 °C
Humidity: 89% 59% 77%
Wind Speed: 20.9km/h 0km/h 4.8km/h
Wind Gust: 25.7km/h - -
Wind- - West
Pressure: 1021.3 hPa 1016.3 hPa -
Precipitation: 0.0 mm    
Historical Graphs
 
 
Tabular Data for March 13, 2020
Time Temperature Dew Point Pressure Wind Wind Speed Wind Gust Humidity Rainfall Rate (Hourly) solar
00:01 6.9 °C 2.6 °C 1016.3 hPa West 4.7 km/h 11.3 km/h 74% 0.0 mm 0 W/m2
00:07 6.9 °C 2.4 °C 1016.3 hPa WNW 14.3 km/h 17.7 km/h 73% 0.0 mm 0 W/m2
00:12 6.9 °C 2.6 °C 1016.3 hPa West 14.3 km/h 16.1 km/h 74% 0.0 mm 0 W/m2
00:17 6.8 °C 2.3 °C 1016.3 hPa WNW 7.9 km/h 17.7 km/h 73% 0.0 mm 0 W/m2
00:22 6.8 °C 2.3 °C 1016.3 hPa West 6.4 km/h 12.9 km/h 73% 0.0 mm 0 W/m2
00:27 6.8 °C 2.3 °C 1016.3 hPa WSW 6.4 km/h 6.4 km/h 73% 0.0 mm 0 W/m2
00:32 6.7 °C 2.2 °C 1016.3 hPa WNW 4.7 km/h 17.7 km/h 73% 0.0 mm 0 W/m2
00:37 6.5 °C 2.2 °C 1016.6 hPa WSW 6.4 km/h 14.5 km/h 74% 0.0 mm 0 W/m2
00:42 6.3 °C 2 °C 1016.6 hPa WSW 6.4 km/h 16.1 km/h 74% 0.0 mm 0 W/m2
00:47 6.3 °C 2.2 °C 1016.6 hPa NW 1.4 km/h 8 km/h 75% 0.0 mm 0 W/m2
00:52 6.2 °C 2.1 °C 1016.6 hPa West 3.2 km/h 11.3 km/h 75% 0.0 mm 0 W/m2
00:57 6.1 °C 2.2 °C 1016.6 hPa WNW 3.2 km/h 3.2 km/h 76% 0.0 mm 0 W/m2
01:02 6 °C 2.1 °C 1016.6 hPa WNW 4.7 km/h 16.1 km/h 76% 0.0 mm 0 W/m2
01:07 5.9 °C 2.2 °C 1016.6 hPa West 3.2 km/h 9.7 km/h 77% 0.0 mm 0 W/m2
01:12 5.9 °C 2.2 °C 1016.6 hPa West 4.7 km/h 16.1 km/h 77% 0.0 mm 0 W/m2
01:17 5.8 °C 2.3 °C 1016.9 hPa WSW 4.7 km/h 6.4 km/h 78% 0.0 mm 0 W/m2
01:22 5.7 °C 2.2 °C 1016.9 hPa WNW 4.7 km/h 9.7 km/h 78% 0.0 mm 0 W/m2
01:27 5.7 °C 2.2 °C 1016.9 hPa WSW 13 km/h 16.1 km/h 78% 0.0 mm 0 W/m2
01:32 5.7 °C 2.2 °C 1016.9 hPa WNW 3.2 km/h 12.9 km/h 78% 0.0 mm 0 W/m2
01:37 5.7 °C 2.3 °C 1016.9 hPa West 9.7 km/h 16.1 km/h 79% 0.0 mm 0 W/m2
01:42 5.7 °C 2.3 °C 1016.9 hPa WNW 1.4 km/h 3.2 km/h 79% 0.0 mm 0 W/m2
01:47 5.6 °C 2.2 °C 1016.9 hPa WNW 4.7 km/h 11.3 km/h 79% 0.0 mm 0 W/m2
01:53 5.5 °C 2.1 °C 1016.9 hPa West 6.4 km/h 9.7 km/h 79% 0.0 mm 0 W/m2
01:58 5.5 °C 2.1 °C 1016.9 hPa West 14.5 km/h 14.5 km/h 79% 0.0 mm 0 W/m2
02:03 5.5 °C 2.1 °C 1016.9 hPa West 11.1 km/h 11.3 km/h 79% 0.0 mm 0 W/m2
02:08 5.5 °C 2.1 °C 1016.9 hPa NNW 3.2 km/h 12.9 km/h 79% 0.0 mm 0 W/m2
02:13 5.4 °C 2.1 °C 1016.9 hPa West 6.4 km/h 11.3 km/h 79% 0.0 mm 0 W/m2
02:18 5.4 °C 2.1 °C 1016.9 hPa WNW 3.2 km/h 6.4 km/h 79% 0.0 mm 0 W/m2
02:23 5.3 °C 2 °C 1016.9 hPa West 11.1 km/h 12.9 km/h 79% 0.0 mm 0 W/m2
02:28 5.3 °C 1.8 °C 1016.9 hPa WNW 3.2 km/h 14.5 km/h 78% 0.0 mm 0 W/m2
02:33 5.3 °C 1.8 °C 1016.9 hPa NW 4.7 km/h 11.3 km/h 78% 0.0 mm 0 W/m2
02:38 5.3 °C 1.8 °C 1016.9 hPa West 3.2 km/h 16.1 km/h 78% 0.0 mm 0 W/m2
02:43 5.2 °C 1.7 °C 1016.9 hPa West 4.7 km/h 11.3 km/h 78% 0.0 mm 0 W/m2
02:48 5.3 °C 1.8 °C 1016.9 hPa West 3.2 km/h 12.9 km/h 78% 0.0 mm 0 W/m2
02:53 5.2 °C 1.7 °C 1016.9 hPa SW 6.4 km/h 14.5 km/h 78% 0.0 mm 0 W/m2
02:58 5.2 °C 1.7 °C 1017.3 hPa WNW 13 km/h 14.5 km/h 78% 0.0 mm 0 W/m2
03:03 5.1 °C 1.6 °C 1016.9 hPa WNW 4.7 km/h 12.9 km/h 78% 0.0 mm 0 W/m2
03:08 5.1 °C 1.6 °C 1017.3 hPa NW 11.1 km/h 16.1 km/h 78% 0.0 mm 0 W/m2
03:13 5 °C 1.5 °C 1017.3 hPa West 6.4 km/h 9.7 km/h 78% 0.0 mm 0 W/m2
03:18 5 °C 1.5 °C 1017.3 hPa WNW 6.4 km/h 16.1 km/h 78% 0.0 mm 0 W/m2
03:23 4.9 °C 1.4 °C 1017.3 hPa WNW 1.4 km/h 9.7 km/h 78% 0.0 mm 0 W/m2
03:28 4.9 °C 1.4 °C 1017.6 hPa WSW 16.3 km/h 16.1 km/h 78% 0.0 mm 0 W/m2
03:33 4.8 °C 1.3 °C 1017.6 hPa WSW 6.4 km/h 12.9 km/h 78% 0.0 mm 0 W/m2
03:38 4.9 °C 1.4 °C 1017.6 hPa WNW 6.4 km/h 12.9 km/h 78% 0.0 mm 0 W/m2
03:43 4.9 °C 1.4 °C 1017.6 hPa WNW 3.2 km/h 19.3 km/h 78% 0.0 mm 0 W/m2
03:48 4.8 °C 1.3 °C 1017.6 hPa WSW 3.2 km/h 14.5 km/h 78% 0.0 mm 0 W/m2
03:53 4.8 °C 1.3 °C 1017.6 hPa West 11.1 km/h 14.5 km/h 78% 0.0 mm 0 W/m2
03:58 4.8 °C 1.3 °C 1017.3 hPa NW 1.4 km/h 12.9 km/h 78% 0.0 mm 0 W/m2
04:03 4.8 °C 1.3 °C 1017.3 hPa West 9.7 km/h 16.1 km/h 78% 0.0 mm 0 W/m2
04:08 4.8 °C 1.3 °C 1017.3 hPa West 13 km/h 16.1 km/h 78% 0.0 mm 0 W/m2
04:13 4.7 °C 1.4 °C 1017.6 hPa West 6.4 km/h 14.5 km/h 79% 0.0 mm 0 W/m2
04:18 4.7 °C 1.4 °C 1017.6 hPa WSW 4.7 km/h 19.3 km/h 79% 0.0 mm 0 W/m2
04:23 4.7 °C 1.4 °C 1017.6 hPa WNW 13 km/h 16.1 km/h 79% 0.0 mm 0 W/m2
04:28 4.6 °C 1.3 °C 1017.6 hPa West 6.4 km/h 11.3 km/h 79% 0.0 mm 0 W/m2
04:33 4.6 °C 1.3 °C 1018.0 hPa West 11.1 km/h 11.3 km/h 79% 0.0 mm 0 W/m2
04:38 4.6 °C 1.4 °C 1018.0 hPa WNW 11.1 km/h 14.5 km/h 80% 0.0 mm 0 W/m2
04:43 4.6 °C 1.4 °C 1018.0 hPa WNW 7.9 km/h 17.7 km/h 80% 0.0 mm 0 W/m2
04:48 4.6 °C 1.4 °C 1018.0 hPa WNW 4.7 km/h 6.4 km/h 80% 0.0 mm 0 W/m2
04:53 4.6 °C 1.4 °C 1018.0 hPa West 4.7 km/h 6.4 km/h 80% 0.0 mm 0 W/m2
04:58 4.5 °C 1.4 °C 1018.0 hPa Calm   6.4 km/h 80% 0.0 mm 0 W/m2
05:03 4.5 °C 1.4 °C 1018.0 hPa NW 7.9 km/h 11.3 km/h 80% 0.0 mm 0 W/m2
05:08 4.5 °C 1.4 °C 1018.0 hPa West 4.7 km/h 11.3 km/h 80% 0.0 mm 0 W/m2
05:13 4.4 °C 1.4 °C 1018.0 hPa WNW 4.7 km/h 6.4 km/h 81% 0.0 mm 0 W/m2
05:18 4.4 °C 1.4 °C 1018.0 hPa WNW 7.9 km/h 9.7 km/h 81% 0.0 mm 0 W/m2
05:23 4.4 °C 1.4 °C 1018.0 hPa WNW 4.7 km/h 11.3 km/h 81% 0.0 mm 0 W/m2
05:28 4.4 °C 1.4 °C 1018.3 hPa NW 11.1 km/h 16.1 km/h 81% 0.0 mm 0 W/m2
05:33 4.3 °C 1.5 °C 1018.3 hPa NE 3.2 km/h 9.7 km/h 82% 0.0 mm 0 W/m2
05:38 4.3 °C 1.5 °C 1018.3 hPa West 9.7 km/h 12.9 km/h 82% 0.0 mm 0 W/m2
05:43 4.3 °C 1.5 °C 1018.3 hPa West 16.3 km/h 16.1 km/h 82% 0.0 mm 0 W/m2
05:48 4.3 °C 1.5 °C 1018.3 hPa West 4.7 km/h 12.9 km/h 82% 0.0 mm 0 W/m2
05:53 4.3 °C 1.7 °C 1018.3 hPa West 3.2 km/h 11.3 km/h 83% 0.0 mm 0 W/m2
05:58 4.2 °C 1.6 °C 1018.3 hPa SW 3.2 km/h 17.7 km/h 83% 0.0 mm 0 W/m2
06:03 4.2 °C 1.6 °C 1018.6 hPa WSW 3.2 km/h 9.7 km/h 83% 0.0 mm 0 W/m2
06:08 4.2 °C 1.6 °C 1018.6 hPa West 13 km/h 16.1 km/h 83% 0.0 mm 0 W/m2
06:13 4.2 °C 1.6 °C 1018.6 hPa NNW 7.9 km/h 9.7 km/h 83% 0.0 mm 0 W/m2
06:18 4.2 °C 1.6 °C 1018.6 hPa WNW 4.7 km/h 19.3 km/h 83% 0.0 mm 0 W/m2
06:23 4.2 °C 1.6 °C 1018.6 hPa WNW 7.9 km/h 9.7 km/h 83% 0.0 mm 0 W/m2
06:28 4.2 °C 1.6 °C 1019.0 hPa WNW 6.4 km/h 16.1 km/h 83% 0.0 mm 0 W/m2
06:33 4.3 °C 1.7 °C 1019.0 hPa WNW 7.9 km/h 12.9 km/h 83% 0.0 mm 0 W/m2
06:38 4.3 °C 1.7 °C 1019.0 hPa WNW 4.7 km/h 12.9 km/h 83% 0.0 mm 0 W/m2
06:43 4.3 °C 1.7 °C 1019.0 hPa NW 6.4 km/h 14.5 km/h 83% 0.0 mm 0 W/m2
06:48 4.3 °C 1.7 °C 1019.0 hPa West 4.7 km/h 16.1 km/h 83% 0.0 mm 0 W/m2
06:53 4.3 °C 1.7 °C 1019.0 hPa South 20.9 km/h 22.5 km/h 83% 0.0 mm 0 W/m2
06:58 4.3 °C 1.7 °C 1019.0 hPa NW 6.4 km/h 8 km/h 83% 0.0 mm 5 W/m2
07:03 4.3 °C 1.7 °C 1019.0 hPa West 6.4 km/h 11.3 km/h 83% 0.0 mm 5 W/m2
07:08 4.4 °C 1.8 °C 1019.0 hPa WSW 3.2 km/h 14.5 km/h 83% 0.0 mm 9 W/m2
07:13 4.4 °C 1.8 °C 1019.0 hPa WNW 4.7 km/h 22.5 km/h 83% 0.0 mm 11 W/m2
07:18 4.4 °C 1.8 °C 1019.0 hPa WSW 3.2 km/h 11.3 km/h 83% 0.0 mm 12 W/m2
07:23 4.4 °C 1.8 °C 1019.0 hPa South 4.7 km/h 16.1 km/h 83% 0.0 mm 16 W/m2
07:28 4.3 °C 1.7 °C 1019.3 hPa NW 6.4 km/h 12.9 km/h 83% 0.0 mm 19 W/m2
07:33 4.3 °C 1.7 °C 1019.3 hPa NNW 1.4 km/h 6.4 km/h 83% 0.0 mm 21 W/m2
07:38 4.3 °C 1.7 °C 1019.3 hPa West 4.7 km/h 19.3 km/h 83% 0.0 mm 51 W/m2
07:43 4.4 °C 1.8 °C 1019.3 hPa NNW 4.7 km/h 12.9 km/h 83% 0.0 mm 67 W/m2
07:48 4.4 °C 1.8 °C 1019.6 hPa West 1.4 km/h 19.3 km/h 83% 0.0 mm 39 W/m2
07:53 4.6 °C 2 °C 1019.6 hPa WNW 16.3 km/h 19.3 km/h 83% 0.0 mm 44 W/m2
07:58 4.7 °C 2.1 °C 1019.6 hPa NW 7.9 km/h 16.1 km/h 83% 0.0 mm 47 W/m2
08:03 4.7 °C 2.1 °C 1019.6 hPa WNW 17.7 km/h 17.7 km/h 83% 0.0 mm 62 W/m2
08:08 4.7 °C 2.1 °C 1019.6 hPa NNW 9.7 km/h 12.9 km/h 83% 0.0 mm 44 W/m2
08:19 4.8 °C 2.2 °C 1020.0 hPa WSW 11.1 km/h 14.5 km/h 83% 0.0 mm 74 W/m2
08:24 4.9 °C 2.3 °C 1020.0 hPa WSW 7.9 km/h 14.5 km/h 83% 0.0 mm 162 W/m2
08:29 5 °C 2.4 °C 1020.0 hPa West 14.3 km/h 25.7 km/h 83% 0.0 mm 178 W/m2
08:34 5.1 °C 2.3 °C 1020.3 hPa West 11.1 km/h 11.3 km/h 82% 0.0 mm 276 W/m2
08:44 5.3 °C 2.5 °C 1020.3 hPa East 3.2 km/h 16.1 km/h 82% 0.0 mm 86 W/m2
08:49 5.3 °C 2.5 °C 1020.3 hPa West 4.7 km/h 19.3 km/h 82% 0.0 mm 114 W/m2
08:54 5.3 °C 2.5 °C 1020.3 hPa WSW 4.7 km/h 8 km/h 82% 0.0 mm 67 W/m2
12:50 8.4 °C 4 °C 1021.3 hPa West 4.7 km/h 19.3 km/h 74% 0.0 mm 221 W/m2
12:55 8.4 °C 4 °C 1021.3 hPa West 6.4 km/h 16.1 km/h 74% 0.0 mm 148 W/m2
13:00 8.3 °C 3.7 °C 1021.3 hPa WNW 9.7 km/h 19.3 km/h 73% 0.0 mm 116 W/m2
16:47 10.1 °C 2.9 °C 1020.7 hPa NW 6.4 km/h 20.9 km/h 61% 0.0 mm 65 W/m2
16:52 9.9 °C 3 °C 1020.7 hPa West 4.7 km/h 9.7 km/h 62% 0.0 mm 67 W/m2
16:57 9.8 °C 2.9 °C 1020.7 hPa NW 6.4 km/h 8 km/h 62% 0.0 mm 77 W/m2
17:02 9.9 °C 2.7 °C 1020.7 hPa WSW 6.4 km/h 17.7 km/h 61% 0.0 mm 146 W/m2
17:12 9.9 °C 2.7 °C 1020.3 hPa West 11.1 km/h 11.3 km/h 61% 0.0 mm 146 W/m2
17:17 10.1 °C 2.9 °C 1020.3 hPa WSW 4.7 km/h 9.7 km/h 61% 0.0 mm 125 W/m2
17:22 10.2 °C 2.8 °C 1020.3 hPa West 14.3 km/h 14.5 km/h 60% 0.0 mm 74 W/m2
17:27 10 °C 2.4 °C 1020.3 hPa WNW 4.7 km/h 8 km/h 59% 0.0 mm 33 W/m2
17:32 9.8 °C 2.4 °C 1020.7 hPa West 1.4 km/h 11.3 km/h 60% 0.0 mm 44 W/m2
17:37 9.7 °C 2.5 °C 1020.7 hPa West 1.4 km/h 3.2 km/h 61% 0.0 mm 40 W/m2
17:42 9.6 °C 2.7 °C 1020.7 hPa WNW 7.9 km/h 9.7 km/h 62% 0.0 mm 40 W/m2
17:47 9.6 °C 2.9 °C 1020.7 hPa WNW 1.4 km/h 6.4 km/h 63% 0.0 mm 40 W/m2
17:52 9.6 °C 2.9 °C 1020.3 hPa WNW 6.4 km/h 12.9 km/h 63% 0.0 mm 44 W/m2
18:02 9.5 °C 2.6 °C 1020.7 hPa West 3.2 km/h 6.4 km/h 62% 0.0 mm 23 W/m2
18:07 9.4 °C 2.5 °C 1020.7 hPa WNW 6.4 km/h 9.7 km/h 62% 0.0 mm 25 W/m2
18:12 9.4 °C 2.5 °C 1020.7 hPa West 3.2 km/h 6.4 km/h 62% 0.0 mm 25 W/m2
18:17 9.4 °C 2.5 °C 1020.7 hPa WNW 3.2 km/h 6.4 km/h 62% 0.0 mm 23 W/m2
18:22 9.3 °C 2.4 °C 1020.7 hPa SW 1.4 km/h 9.7 km/h 62% 0.0 mm 14 W/m2
18:27 9.2 °C 2.5 °C 1020.7 hPa Calm   3.2 km/h 63% 0.0 mm 11 W/m2
18:32 9.1 °C 2.6 °C 1020.7 hPa WNW 1.4 km/h 4.8 km/h 64% 0.0 mm 9 W/m2
18:37 8.8 °C 2.6 °C 1020.7 hPa WNW 3.2 km/h 4.8 km/h 65% 0.0 mm 5 W/m2
18:42 8.7 °C 2.9 °C 1020.7 hPa West 1.4 km/h 3.2 km/h 67% 0.0 mm 0 W/m2
18:47 8.4 °C 2.8 °C 1020.7 hPa West 1.4 km/h 1.6 km/h 68% 0.0 mm 0 W/m2
18:52 8.2 °C 2.9 °C 1020.7 hPa West 1.4 km/h 1.6 km/h 69% 0.0 mm 0 W/m2
18:57 7.9 °C 2.8 °C 1020.7 hPa West 1.4 km/h 1.6 km/h 70% 0.0 mm 0 W/m2
19:02 7.6 °C 2.7 °C 1020.7 hPa Calm   1.6 km/h 71% 0.0 mm 0 W/m2
19:07 7.4 °C 2.7 °C 1020.7 hPa Calm     72% 0.0 mm 0 W/m2
19:12 7.1 °C 2.6 °C 1020.7 hPa Calm   1.6 km/h 73% 0.0 mm 0 W/m2
19:17 6.9 °C 2.6 °C 1021.0 hPa Calm     74% 0.0 mm 0 W/m2
19:22 6.7 °C 2.4 °C 1021.0 hPa Calm   1.6 km/h 74% 0.0 mm 0 W/m2
19:27 6.6 °C 2.5 °C 1021.0 hPa Calm     75% 0.0 mm 0 W/m2
19:32 6.4 °C 2.5 °C 1021.0 hPa Calm     76% 0.0 mm 0 W/m2
19:37 6.3 °C 2.6 °C 1021.0 hPa Calm     77% 0.0 mm 0 W/m2
19:42 6.2 °C 2.5 °C 1021.0 hPa West 1.4 km/h 1.6 km/h 77% 0.0 mm 0 W/m2
19:47 6.1 °C 2.4 °C 1021.0 hPa Calm   3.2 km/h 77% 0.0 mm 0 W/m2
19:52 6.2 °C 2.5 °C 1021.0 hPa West 3.2 km/h 6.4 km/h 77% 0.0 mm 0 W/m2
19:57 6.3 °C 2.6 °C 1021.0 hPa Calm   3.2 km/h 77% 0.0 mm 0 W/m2
20:02 6.3 °C 2.6 °C 1021.0 hPa WNW 1.4 km/h 6.4 km/h 77% 0.0 mm 0 W/m2
20:07 6.3 °C 2.6 °C 1021.0 hPa WNW 1.4 km/h 1.6 km/h 77% 0.0 mm 0 W/m2
20:12 6.4 °C 2.7 °C 1021.0 hPa WSW 1.4 km/h 4.8 km/h 77% 0.0 mm 0 W/m2
20:17 6.5 °C 2.6 °C 1021.0 hPa West 3.2 km/h 4.8 km/h 76% 0.0 mm 0 W/m2
20:22 6.6 °C 2.7 °C 1021.0 hPa WSW 3.2 km/h 6.4 km/h 76% 0.0 mm 0 W/m2
20:27 6.7 °C 2.6 °C 1021.0 hPa West 1.4 km/h 4.8 km/h 75% 0.0 mm 0 W/m2
20:32 6.7 °C 2.6 °C 1021.0 hPa West 3.2 km/h 9.7 km/h 75% 0.0 mm 0 W/m2
20:37 6.8 °C 2.7 °C 1021.0 hPa WSW 1.4 km/h 3.2 km/h 75% 0.0 mm 0 W/m2
20:42 6.8 °C 2.7 °C 1021.0 hPa WSW 1.4 km/h 4.8 km/h 75% 0.0 mm 0 W/m2
20:47 6.8 °C 2.5 °C 1021.0 hPa West 4.7 km/h 9.7 km/h 74% 0.0 mm 0 W/m2
20:52 6.9 °C 2.6 °C 1021.0 hPa WNW 4.7 km/h 6.4 km/h 74% 0.0 mm 0 W/m2
20:57 6.8 °C 2.5 °C 1021.0 hPa Calm   8 km/h 74% 0.0 mm 0 W/m2
21:02 6.8 °C 2.5 °C 1021.0 hPa WSW 1.4 km/h 4.8 km/h 74% 0.0 mm 0 W/m2
21:07 6.7 °C 2.6 °C 1021.0 hPa Calm   6.4 km/h 75% 0.0 mm 0 W/m2
21:12 6.4 °C 2.3 °C 1021.0 hPa WSW 4.7 km/h 6.4 km/h 75% 0.0 mm 0 W/m2
21:17 6.4 °C 2.5 °C 1021.0 hPa Calm   3.2 km/h 76% 0.0 mm 0 W/m2
21:22 6.3 °C 2.4 °C 1021.0 hPa WNW 6.4 km/h 6.4 km/h 76% 0.0 mm 0 W/m2
21:27 6.3 °C 2.4 °C 1021.0 hPa Calm   3.2 km/h 76% 0.0 mm 0 W/m2
21:32 6.3 °C 2.4 °C 1021.3 hPa WSW 1.4 km/h 6.4 km/h 76% 0.0 mm 0 W/m2
21:37 6.2 °C 2.5 °C 1021.3 hPa WSW 4.7 km/h 4.8 km/h 77% 0.0 mm 0 W/m2
21:42 6.3 °C 2.4 °C 1021.3 hPa WSW 6.4 km/h 12.9 km/h 76% 0.0 mm 0 W/m2
21:47 6.4 °C 2.3 °C 1021.3 hPa West 3.2 km/h 3.2 km/h 75% 0.0 mm 0 W/m2
21:52 6.3 °C 2.4 °C 1021.3 hPa WNW 3.2 km/h 11.3 km/h 76% 0.0 mm 0 W/m2
21:57 6.1 °C 2.4 °C 1021.3 hPa NW 4.7 km/h 4.8 km/h 77% 0.0 mm 0 W/m2
22:02 5.7 °C 2.2 °C 1021.3 hPa NNW 3.2 km/h 4.8 km/h 78% 0.0 mm 0 W/m2
22:07 5.4 °C 2.2 °C 1021.3 hPa NW 3.2 km/h 6.4 km/h 80% 0.0 mm 0 W/m2
22:12 5.1 °C 2.1 °C 1021.3 hPa West 3.2 km/h 3.2 km/h 81% 0.0 mm 0 W/m2
22:17 4.9 °C 1.9 °C 1021.3 hPa West 3.2 km/h 3.2 km/h 81% 0.0 mm 0 W/m2
22:22 4.8 °C 2 °C 1021.3 hPa WNW 1.4 km/h 3.2 km/h 82% 0.0 mm 0 W/m2
22:27 4.7 °C 1.9 °C 1021.3 hPa Calm   3.2 km/h 82% 0.0 mm 0 W/m2
22:32 4.6 °C 2 °C 1021.3 hPa WNW 1.4 km/h 3.2 km/h 83% 0.0 mm 0 W/m2
22:37 4.4 °C 1.8 °C 1021.3 hPa West 1.4 km/h 1.6 km/h 83% 0.0 mm 0 W/m2
22:42 4.4 °C 1.9 °C 1021.3 hPa Calm   1.6 km/h 84% 0.0 mm 0 W/m2
22:47 4.3 °C 1.8 °C 1021.3 hPa Calm     84% 0.0 mm 0 W/m2
22:52 4.2 °C 1.7 °C 1021.3 hPa Calm     84% 0.0 mm 0 W/m2
22:57 4.1 °C 1.8 °C 1021.3 hPa Calm     85% 0.0 mm 0 W/m2
23:02 3.9 °C 1.6 °C 1021.3 hPa Calm   1.6 km/h 85% 0.0 mm 0 W/m2
23:07 3.8 °C 1.5 °C 1021.3 hPa Calm   3.2 km/h 85% 0.0 mm 0 W/m2
23:12 3.7 °C 1.4 °C 1021.3 hPa Calm     85% 0.0 mm 0 W/m2
23:17 3.6 °C 1.5 °C 1021.3 hPa Calm   3.2 km/h 86% 0.0 mm 0 W/m2
23:22 3.4 °C 1.3 °C 1021.3 hPa Calm     86% 0.0 mm 0 W/m2
23:27 3.3 °C 1.2 °C 1021.3 hPa Calm     86% 0.0 mm 0 W/m2
23:32 3.2 °C 1.2 °C 1021.3 hPa Calm     87% 0.0 mm 0 W/m2
23:37 3.2 °C 1.2 °C 1021.3 hPa Calm     87% 0.0 mm 0 W/m2
23:43 3.1 °C 1.3 °C 1021.3 hPa Calm     88% 0.0 mm 0 W/m2
23:48 3 °C 1.2 °C 1021.0 hPa Calm     88% 0.0 mm 0 W/m2
23:53 3 °C 1.2 °C 1021.0 hPa Calm   3.2 km/h 88% 0.0 mm 0 W/m2
23:58 2.9 °C 1.3 °C 1021.0 hPa Calm     89% 0.0 mm 0 W/m2
Juneau County Weather
Compliments of Weather Underground - 2 mb